Flag for Romania Weather past 2 weeks in Iasi, Romania

Now
77 °F

Passing clouds.


Feels Like: 79 °F
Forecast: 62 / 83 °F
Wind: 5 mph from Southwest

Location: Iasi Airport

Current Time: Sep 2, 2014 at 12:25:43 PM

Latest Report: Sep 2, 2014 at 12:00 PM


Visibility: N/A

Pressure: 29.92 "Hg

Humidity: 51%

Dew point: 57 °F

Location of IasiLocation

Historic Weather in Iasi — Graph

°F

Iasi temperature yesterday

Maximum temperature yesterday: 82 °F (at 4:00 PM)
Minimum temperature yesterday: 57 °F (at 6:30 AM)
Average temperature yesterday: 71 °F

Past Weeks' High & Low Weather Summary

 TemperatureHumidityPressure
High86 °F (Aug 20, 1:00 PM)100% (Aug 21, 8:00 PM)30.18 "Hg (Aug 21, 8:00 PM)
Low50 °F (Aug 29, 4:00 AM)25% (Sep 1, 5:00 PM)29.71 "Hg (Aug 27, 5:30 PM)
Average68 °F64%29.99 "Hg
* Reported Aug 18 11:00 AM — Sep 2 11:30 AM, Iasi, Weather by CustomWeather, © 2014

Note: Actual official high and low records may vary slightly from our data, if they occured in-between our weather recording intervals... More about our weather records

Advertising

Iasi weather history for previous 24 hours

 ConditionsComfort  
Time TempWeatherWind HumidityBarometerVisibility
11:30 AM
Sep 2
73 °FPassing clouds.5 mph53%29.92 "HgN/A
11:00 AM73 °FPassing clouds.5 mph53%29.92 "HgN/A
10:30 AM70 °FPassing clouds.5 mph57%29.92 "HgN/A
10:00 AM66 °FPassing clouds.5 mph64%29.92 "HgN/A
9:30 AM63 °FPassing clouds.5 mph73%29.92 "HgN/A
9:00 AM61 °FPassing clouds.5 mph77%29.92 "HgN/A
8:30 AM59 °FPassing clouds.5 mph82%29.92 "HgN/A
8:00 AM55 °FSunny.2 mph94%29.92 "Hg10 mi
7:30 AM54 °FSunny.5 mph94%29.92 "Hg10 mi
7:00 AM52 °FClear.5 mph100%29.92 "Hg10 mi
6:30 AM50 °FClear.5 mph100%29.92 "Hg10 mi
6:00 AM50 °FClear.5 mph100%29.89 "Hg10 mi
5:30 AM50 °FClear.5 mph100%29.89 "Hg10 mi
5:00 AM52 °FClear.5 mph100%29.89 "Hg10 mi
4:00 AM54 °FClear.5 mph94%29.89 "Hg10 mi
3:00 AM55 °FClear.2 mph88%29.89 "Hg10 mi
2:00 AM57 °FClear.2 mph82%29.89 "Hg10 mi
1:00 AM59 °FClear.2 mph77%29.89 "Hg10 mi
12:00 AM61 °FClear.5 mph68%29.89 "Hg10 mi
11:00 PM
Sep 1
59 °FClear.2 mph82%29.89 "Hg10 mi
10:00 PM63 °FClear.2 mph64%29.89 "Hg10 mi
9:00 PM68 °FClear.5 mph46%29.89 "Hg10 mi
8:30 PM72 °FPassing clouds.5 mph41%29.89 "HgN/A
8:00 PM73 °FSunny.2 mph41%29.89 "Hg10 mi
7:30 PM77 °FSunny.2 mph34%29.86 "Hg10 mi
7:00 PM79 °FSunny.2 mph32%29.89 "Hg10 mi
6:30 PM79 °FPassing clouds.5 mph30%29.89 "HgN/A
6:00 PM81 °FPassing clouds.7 mph28%29.89 "HgN/A
5:30 PM81 °FSunny.9 mph28%29.89 "Hg10 mi
5:00 PM82 °FPassing clouds.7 mph25%29.89 "HgN/A
4:30 PM82 °FPassing clouds.7 mph28%29.89 "HgN/A
4:00 PM82 °FPassing clouds.9 mph28%29.89 "HgN/A
3:30 PM81 °FPassing clouds.9 mph32%29.89 "HgN/A
3:00 PM81 °FPassing clouds.9 mph32%29.92 "HgN/A
2:30 PM81 °FPassing clouds.5 mph30%29.92 "HgN/A
2:00 PM81 °FPassing clouds.9 mph32%29.92 "HgN/A
1:30 PM81 °FPassing clouds.12 mph34%29.92 "HgN/A
1:00 PM79 °FPassing clouds.12 mph37%29.92 "HgN/A
12:30 PM77 °FPassing clouds.7 mph42%29.92 "HgN/A
12:00 PM77 °FPassing clouds.9 mph44%29.95 "HgN/A
Weather by CustomWeather, © 2014

See weather overviewHow to use our weather pages